User: anonymous   Login
Location: Bakov nad Jizerou
(50.4784°N, 14.9394°E)
Time: 08:42:29
(UTC+00:00)
Language:

SL-8 R/B - Orbit

View from above orbital plane
View from above orbital plane
View from above satellite
View from above satellite

Ground track
Ground track

The orbit data is extracted from the following two-line orbital elements,

1 33066U 08031G   21263.87417502 -.00000110  00000-0  14369-4 0  9998
2 33066  48.4451  27.6420 0007996 218.8267 141.2070 14.69776262711646
Epoch (UTC): 20 September 2021 20:58:48
Eccentricity: 0.0007996
inclination: 48.4451°
perigee height: 656 km
apogee height: 667 km
right ascension of ascending node: 27.6420°
argument of perigee: 218.8267°
revolutions per day: 14.69776262
mean anomaly at epoch: 141.2070°
orbit number at epoch: 71164

The dashed part of the orbit path shows where the satellite is in the earth's shadow,  

DLR